Location: Unspecified
(0.0000°N, 0.0000°E)
Time: 16:53:30
(UTC+00:00)

N. Korean satellite - Pass Details

Date: 28 March 2017
Orbit: 463 x 516 km, 97.2° (Epoch: 22 May)

Event Time Altitude Azimuth Distance (km) Brightness Sun altitude
Rises 18:33:35 0° 164° (SSE) 2,602 10.1 -7.1°
Reaches altitude 10° 18:35:43 10° 160° (SSE) 1,707 9.1 -7.7°
Maximum altitude 18:39:21 62° 79° (E) 558 6.6 -8.6°
Drops below altitude 10° 18:42:54 10° 358° (N) 1,667 9.4 -9.5°
Sets 18:44:57 0° 355° (N) 2,535 10.3 -10.0°
